Regional Weather Roundup
Issued by NWS

Home | Current Version | Previous Version | Graphics & Text | Print | Product List | Glossary On
Versions: 1 2 3 4 5 6 7 8 9 10 11 12 13 14 15 16 17 18 19 20 21 22 23 24 25 26 27 28 29 30 31 32 33 34 35 36 37 38 39 40 41 42 43 44 45 46 47 48 49 50
000
ASUS43 KMKX 271300
RWRWI

WISCONSIN REGIONAL WEATHER ROUNDUP
NATIONAL WEATHER SERVICE MILWAUKEE/SULLIVAN WI
800 AM CDT MON APR 27 2015

NOTE: "FAIR" INDICATES FEW OR NO CLOUDS BELOW 12,000 FEET WITH NO
SIGNIFICANT WEATHER AND/OR OBSTRUCTIONS TO VISIBILITY.

WIZ001-002-006>008-014>016-023>028-271400-
NORTHWEST WISCONSIN

CITY           SKY/WX    TMP DP  RH WIND       PRES   REMARKS
SUPERIOR ARPT  SUNNY     33  28  83 S3        30.23S
ASHLAND        SUNNY     40  31  70 CALM      30.23R
HAYWARD        SUNNY     37  29  72 CALM      30.22R
SIREN          SUNNY     35  32  88 CALM      30.22S
CUMBERLAND     SUNNY     37  32  81 N3        30.21S
RICE LAKE      SUNNY     39  32  76 N5        30.22S
CHETEK         SUNNY     40  31  71 NW3       30.21S
LADYSMITH      SUNNY     41  31  66 N6        30.21S
EAU CLAIRE     NOT AVBL
MENOMONIE      SUNNY     41  28  60 CALM      30.22R
NEW RICHMOND   SUNNY     40  29  66 N3        30.21S
OSCEOLA        SUNNY     36  32  85 CALM      30.24S
$$

WIZ003>005-009-010-017-018-271400-
NORTH CENTRAL WISCONSIN

CITY           SKY/WX    TMP DP  RH WIND       PRES   REMARKS
MANITOWISH WTR SUNNY     38  29  70 N5        30.18S WCI  35
ARBOR VITAE    SUNNY     39  30  68 N8        30.18R WCI  34
WOODRUFF       SUNNY     39  30  68 N8        30.18R WCI  34
RHINELANDER    SUNNY     41  28  60 N7        30.17S
EAGLE RIVER    SUNNY     39  27  61 N9        30.16R WCI  33
LAND O LAKES   SUNNY     40  29  65 N8        30.17S WCI  34
PHILLIPS       SUNNY     39  29  67 NW3       30.19R
TOMAHAWK       SUNNY     38  28  69 CALM      30.18S
MEDFORD        SUNNY     40  30  68 N7        30.17S WCI  35
MERRILL        SUNNY     40  30  68 N3        30.17S
$$

WIZ029-030-035-036-043>047-271400-
CENTRAL WISCONSIN

CITY           SKY/WX    TMP DP  RH WIND       PRES   REMARKS
WAUSAU         SUNNY     43  29  57 N10       30.15F
MOSINEE        SUNNY     39  30  70 N9        30.16F WCI  33
MARSHFIELD     SUNNY     46  29  51 N9        30.17R
STEVENS POINT  SUNNY     39  29  65 N8        30.16S WCI  34
WAUPACA        SUNNY     46  31  58 NW8       30.15S
WAUTOMA        NOT AVBL
WISC RAPIDS    SUNNY     45  29  53 N9        30.17S
CAMP DOUGLAS   NOT AVBL
$$

WIZ011>013-019>022-031-037>040-048>050-271400-
NORTHEAST WISCONSIN

CITY           SKY/WX    TMP DP  RH WIND       PRES   REMARKS
ANTIGO         SUNNY     38  30  72 N8        30.15S WCI  32
SHAWANO        SUNNY     43  31  63 N3        30.14S
OCONTO         SUNNY     42  31  65 N8        30.12S
STURGEON BAY   SUNNY     41  28  60 N12       30.14R
GREEN BAY      SUNNY     46  32  58 N9        30.12S
MANITOWOC      NOT AVBL
APPLETON       MOSUNNY   43  28  56 NW13      30.12S
CLINTONVILLE   SUNNY     43  30  61 N7        30.14S
OSHKOSH        SUNNY     46  31  55 N12       30.12R HAZE
$$

WIZ032>034-041-042-053>061-271400-
SOUTHWEST WISCONSIN

CITY           SKY/WX    TMP DP  RH WIND       PRES   REMARKS
LA CROSSE      SUNNY     46  33  60 N5        30.19R
SPARTA         SUNNY     39  31  73 CALM      30.18R
VIROQUA        SUNNY     41  31  68 N6        30.17R
BOSCOBEL       SUNNY     40  33  76 SW5       30.19R
PRAIRIE DU CHI SUNNY     39  32  75 CALM      30.18R
PLATTEVILLE    SUNNY     39  32  76 CALM      30.16R
$$

WIZ056-057-062-063-064-067-068-271400-
SOUTH CENTRAL WISCONSIN

CITY           SKY/WX    TMP DP  RH WIND       PRES   REMARKS
REEDSBURG      SUNNY     39  32  77 CALM      30.15R
BARABOO/DELLS  SUNNY     41  32  70 NW6       30.14S
LONE ROCK      NOT AVBL
MINERAL POINT  SUNNY     43  32  65 N3        30.15R
MADISON        SUNNY     44  32  62 N9        30.14R
MIDDLETON      SUNNY     45  32  61 NW6       30.14R
WATERTOWN      SUNNY     41  35  80 N7        30.11R
MONROE         SUNNY     43  32  65 NW3       30.14R
JANESVILLE     SUNNY     45  32  61 N8        30.13R
$$

WIZ051-052-058>065-066-070>072-271400-
SOUTHEAST WISCONSIN

CITY           SKY/WX    TMP DP  RH WIND       PRES   REMARKS
MILWAUKEE      SUNNY     46  32  58 N12       30.10R
WAUKESHA       SUNNY     43  28  56 NW7       30.11R
MILWAUKEE/TIMM SUNNY     45  30  57 N8        30.11R
RACINE         SUNNY     46  32  58 N16G22    30.11R
BURLINGTON     SUNNY     41  31  68 N6        30.10R
KENOSHA        SUNNY     44  33  65 NW6       30.10R
FOND DU LAC    SUNNY     45  33  63 N9        30.12R
SHEBOYGAN      SUNNY     46  32  58 N9        30.10S
WEST BEND      SUNNY     43  30  61 N7        30.10R
JUNEAU         SUNNY     40  32  73 NW7       30.13R
$$

LSZ147-162-271400-
LAKE SUPERIOR

STATION/POSITION TIME  TEMP    WIND        PRES    WAVE
                       AIR SEA DIR/SP/G            HT/PER
                 (UTC) (F)     (DEG/KT/KT) (MB)    (FT/S)
W MID LAKE BUOY  1150   37 34  360/  6/  6 1024.5R   0
DEVILS ISLAND    1200   36     250/  9/ 10 1024.6R
PORT WING        1240   36     160/  3/  3 1023.7S
SAXON HARBOR     1200   32      CALM  /  6 1023.0R
$$

LMZ867-665-643>646-271400-
LAKE MICHIGAN

STATION/POSITION TIME  TEMP    WIND        PRES    WAVE
                       AIR SEA DIR/SP/G            HT/PER
                 (UTC) (F)     (DEG/KT/KT) (MB)    (FT/S)
CHAMBERS ISLAND  1200   42     310/ 10/ 13 1019.6R
NORTHPORT PIER   1200   39     340/ 11/ 12 1019.3R
SISTER BAY       1202   42     360/ 10/ 11   N/A
KEWAUNEE LAKESHO 1200   41     320/  7/ 11 1018.7R
SHEBOYGAN LAKESH 1200   43     340/ 16/ 21 1019.7R
PORT WASHINGTON  1200   44     330/  4/  8 1019.6R
MILWAUKEE LAKESH 1200   43     330/  9/ 13   N/A
KENOSHA   LAKESH 1200   44      10/ 20/ 23 1017.9R
$$

TC  - TEMPERATURE IN CELSIUS
VSB - VISIBILITY IN STATUTE MILES
WCI - WIND CHILL INDEX
HX  - HEAT INDEX




USA.gov is the U.S. government's official web portal to all federal, state and local government web resources and services.